Regional Weather Roundup
Issued by NWS

Home | Current Version | Previous Version | Text Only | Print | Product List | Glossary On
Versions: 1 2 3 4 5 6 7 8 9 10 11 12 13 14 15 16 17 18 19 20 21 22 23 24 25 26 27
000
ASUS45 KCYS 191510
RWRWY

WYOMING REGIONAL WEATHER ROUNDUP
NATIONAL WEATHER SERVICE CHEYENNE WY
900 AM MDT THU OCT 19 2017

NOTE:  "FAIR" INDICATES FEW OR NO CLOUDS BELOW 12,000 FEET
WITH NO SIGNIFICANT WEATHER AND/OR OBSTRUCTIONS TO VISIBILITY.

WYZ001-191600-
YELLOWSTONE NATIONAL PARK

CITY           SKY/WX    TMP DP  RH WIND       PRES   REMARKS
LK YELLOWSTONE   N/A     28  25  88 CALM      30.12F
W YELLOWSTONE  NOT AVBL

$$
WYZ002>013-054>058-071-098>099-191600-
NORTHERN WYOMING

CITY           SKY/WX    TMP DP  RH WIND       PRES   REMARKS
JACKSON        FAIR      30  25  81 N5        30.12R WCI  25
CODY           FAIR      55  21  26 SW6       29.96
GREYBULL       FAIR      39  27  62 SE3       29.93R
WORLAND        FAIR      41  30  65 CALM      29.93S
SHERIDAN       FAIR      53  34  48 N7        29.86R
BUFFALO        FAIR      60  21  22 SW9       29.91S
GILLETTE       FAIR      57  23  26 S10       29.90S
HULETT         FAIR      54  27  35 W6        29.92R
NEWCASTLE      FAIR      50  25  37 SE8       29.98R

$$
WYZ014>020-022>026-101>103-191600-
CENTRAL WYOMING

CITY           SKY/WX    TMP DP  RH WIND       PRES   REMARKS
BIG PINEY      FAIR      28  18  66 W3        30.16R
PINEDALE       FAIR      30  21  69 NW8       30.16S WCI  23
DUBOIS         FAIR      43  18  36 NW14      30.08S
LANDER         FAIR      41  26  55 CALM      30.01S
RIVERTON       FAIR      47  25  42 W5        30.02S
CASPER         FAIR      51  17  26 SW18      30.00F
DOUGLAS        FAIR      44  22  41 CALM      30.01R

$$
WYZ021-027>030-104>119-191600-
SOUTHERN WYOMING

CITY           SKY/WX    TMP DP  RH WIND       PRES   REMARKS
EVANSTON       FAIR      43  16  33 SE6       30.13R
FORT BRIDGER     N/A     41  14  33 CALM      30.16R HAZE
ROCK SPRINGS   FAIR      37  12  35 CALM      30.13R
DIXON          FAIR      34  18  52 CALM      30.18S
RAWLINS        FAIR      39  14  36 CALM      30.14R
SARATOGA       FAIR      48  14  25 SE12      30.15S
LARAMIE        FAIR      44  21  40 S9        30.15S
CHEYENNE       FAIR      54  21  27 W9        30.09S
TORRINGTON     FAIR      45  32  60 CALM      30.00S
PINE BLUFFS    FAIR      43  30  61 MISG      30.07S

$$




USA.gov is the U.S. government's official web portal to all federal, state and local government web resources and services.